Location: Huberhof
(49.2050°N, 7.4980°E)
Time: 00:56:20
(UTC+00:00)

Meteor 2-10 Rocket - Pass Details

Date: 29 October 2020
Orbit: 733 x 885 km, 81.2° (Epoch: 26 November)

Event Time Altitude Azimuth Distance (km) Brightness Sun altitude
Rises 17:48:45 0° 183° (S) 3,290 6.9 -16.1°
Reaches altitude 10° 17:51:09 10° 181° (S) 2,342 6.0 -16.5°
Maximum altitude 17:56:23 70° 99° (E) 816 3.4 -17.3°
Drops below altitude 10° 18:01:28 10° 16° (NNE) 2,278 5.8 -18.2°
Sets 18:03:47 0° 14° (NNE) 3,194 6.6 -18.5°
